St. Joseph, KS

11:51 PM CDT on May 23, 2017 (GMT -0500)
Rosecrans Memorial

Weather History for KSTJ - February, 2012

Change the Weather History Date:

Friday, February 24, 2012

  Actual Average Record
Temperature  
Mean Temperature 37 °F 35 °F  
Max Temperature 45 °F 45 °F 83 °F (1930)
Min Temperature 29 °F 24 °F -5 °F (2010)
Degree Days  
Heating Degree Days 28 30  
Month to date heating degree days 703 806  
Since 1 July heating degree days 3599 4189  
Cooling Degree Days 0 0  
Month to date cooling degree days 0 0  
Year to date cooling degree days 0 0  
Moisture  
Dew Point 29 °F    
Average Humidity 67    
Maximum Humidity 100    
Minimum Humidity 33    
Precipitation  
Precipitation 0.03 in 0.04 in 1.35 in (2001)
Month to date precipitation 1.74 0.78  
Year to date precipitation 1.92 1.34  
Sea Level Pressure  
Sea Level Pressure 30.01 in    
Wind  
Wind Speed 14 mph (NW)    
Max Wind Speed 32 mph    
Max Gust Speed 39 mph    
Visibility 7 miles    
Events Snow    
T = Trace of Precipitation, MM = Missing Value Source: NWS Daily Summary

Daily Weather History Graph

Daily Weather History Graph

Search for Another Location

Airport or City:

Trip Planner

Search our weather history database for the weather conditions in past years. The results will help you decide how hot, cold, wet, or windy it might be!

Date:

Astronomy

Feb. 24, 2012 Rise Set
Actual Time 7:00 AM CST 6:05 PM CST
Civil Twilight 6:33 AM CST 6:32 PM CST
Nautical Twilight 6:02 AM CST 7:04 PM CST
Astronomical Twilight 5:30 AM CST 7:35 PM CST
Moon 7:56 AM CST 9:09 PM CST
Length of Visible Light 11h 59m
Length of Day
11h 04m
Waxing Crescent, 8% of the Moon is Illuminated
Feb 24
Waxing Crescent
Feb 29
First Quarter
Mar 8
Full
Mar 14
Last Quarter
Mar 22
New

Hourly Weather History & Observations

Time (CST) Temp. Windchill Dew Point Humidity Pressure Visibility Wind Dir Wind Speed Gust Speed Precip Events Conditions
12:11 AM 33.8 °F 21.9 °F 30.2 °F 87% 29.77 in 2.5 mi NW 21.9 mph - 0.00 in Snow Light Snow
12:19 AM 33.8 °F 21.3 °F 30.2 °F 87% 29.78 in 3.0 mi NW 24.2 mph 33.4 mph 0.00 in Snow Light Snow
12:49 AM 33.8 °F 22.5 °F 30.2 °F 87% 29.79 in 2.5 mi NW 19.6 mph 29.9 mph 0.00 in Snow Light Snow
12:53 AM 33.1 °F 21.9 °F 32.0 °F 96% 29.81 in 2.0 mi WNW 18.4 mph 27.6 mph 0.00 in Snow Light Snow
1:07 AM 33.8 °F 21.6 °F 32.0 °F 93% 29.81 in 1.8 mi NW 23.0 mph 32.2 mph 0.00 in Snow Light Snow
1:22 AM 33.8 °F 21.9 °F 33.8 °F 100% 29.82 in 3.0 mi NW 21.9 mph 28.8 mph 0.00 in Snow Light Snow
1:33 AM 33.8 °F 23.2 °F 33.8 °F 100% 29.83 in 4.0 mi NW 17.3 mph 28.8 mph 0.00 in Snow Light Snow
1:53 AM 33.1 °F 21.2 °F 33.1 °F 100% 29.85 in 5.0 mi NW 20.7 mph 25.3 mph 0.00 in Snow Light Snow
2:14 AM 33.8 °F 22.5 °F 33.8 °F 100% 29.85 in 2.5 mi NW 19.6 mph 25.3 mph 0.00 in Snow Light Snow
2:21 AM 33.8 °F 23.5 °F 33.8 °F 100% 29.85 in 2.5 mi NW 16.1 mph 25.3 mph 0.00 in Snow Light Snow
2:33 AM 32.0 °F 21.2 °F 32.0 °F 100% 29.86 in 2.5 mi NW 16.1 mph 24.2 mph 0.00 in Snow Light Snow
2:43 AM 32.0 °F 21.6 °F 32.0 °F 100% 29.86 in 3.0 mi NW 15.0 mph - 0.00 in Snow Light Snow
2:53 AM 32.0 °F 22.5 °F 32.0 °F 100% 29.88 in 4.0 mi WNW 12.7 mph - 0.00 in Snow Light Snow
3:20 AM 33.8 °F 23.9 °F 33.8 °F 100% 29.87 in 8.0 mi WNW 15.0 mph 21.9 mph N/A   Overcast
3:53 AM 34.0 °F 24.6 °F 34.0 °F 100% 29.90 in 9.0 mi NW 13.8 mph - N/A   Overcast
4:53 AM 34.0 °F 22.7 °F 28.0 °F 79% 29.94 in 10.0 mi NW 19.6 mph 29.9 mph N/A   Overcast
5:26 AM 33.8 °F 22.8 °F 26.6 °F 75% 29.94 in 10.0 mi NW 18.4 mph 24.2 mph N/A   Mostly Cloudy
5:53 AM 32.0 °F 21.6 °F 27.0 °F 82% 29.98 in 10.0 mi WNW 15.0 mph - N/A   Clear
6:53 AM 30.0 °F 21.1 °F 26.1 °F 85% 30.01 in 10.0 mi West 10.4 mph - N/A   Clear
7:53 AM 30.9 °F 22.2 °F 25.0 °F 79% 30.04 in 10.0 mi WNW 10.4 mph - N/A   Clear
8:53 AM 33.1 °F 21.9 °F 26.1 °F 75% 30.07 in 10.0 mi WNW 18.4 mph 25.3 mph N/A   Partly Cloudy
9:45 AM 35.6 °F 24.8 °F 26.6 °F 70% 30.07 in 10.0 mi NW 19.6 mph 28.8 mph N/A   Overcast
9:53 AM 36.0 °F 25.3 °F 28.0 °F 73% 30.10 in 10.0 mi NW 19.6 mph 29.9 mph N/A   Mostly Cloudy
10:26 AM 37.4 °F 27.2 °F 28.4 °F 70% 30.09 in 10.0 mi NW 19.6 mph 29.9 mph N/A   Mostly Cloudy
10:53 AM 37.0 °F 26.4 °F 27.0 °F 67% 30.13 in 10.0 mi WNW 20.7 mph 25.3 mph N/A   Mostly Cloudy
11:53 AM 39.0 °F 29.3 °F 26.1 °F 60% 30.14 in 10.0 mi NW 19.6 mph 27.6 mph N/A   Mostly Cloudy
12:53 PM 43.0 °F 33.8 °F 23.0 °F 45% 30.12 in 10.0 mi WNW 23.0 mph 29.9 mph N/A   Scattered Clouds
1:53 PM 43.0 °F 33.8 °F 21.9 °F 43% 30.13 in 10.0 mi NW 23.0 mph 32.2 mph N/A   Clear
2:53 PM 44.1 °F 35.4 °F 19.0 °F 37% 30.13 in 10.0 mi NW 21.9 mph 27.6 mph N/A   Clear
3:53 PM 44.1 °F 37.7 °F 19.0 °F 37% 30.13 in 10.0 mi WNW 12.7 mph 23.0 mph N/A   Clear
4:53 PM 44.1 °F 37.7 °F 18.0 °F 35% 30.12 in 10.0 mi WNW 12.7 mph - N/A   Clear
5:53 PM 43.0 °F 36.8 °F 21.0 °F 42% 30.11 in 10.0 mi West 11.5 mph - N/A   Mostly Cloudy
6:30 PM 33.8 °F 22.5 °F 32.0 °F 93% 30.17 in 3.0 mi North 19.6 mph - 0.01 in Snow Light Snow
6:39 PM 33.8 °F 25.3 °F 32.0 °F 93% 30.16 in 4.0 mi North 11.5 mph - 0.02 in Snow Light Snow
6:53 PM 33.1 °F 27.7 °F 32.0 °F 96% 30.18 in 9.0 mi North 5.8 mph - 0.02 in Snow Light Snow
7:01 PM 33.8 °F 30.8 °F 33.8 °F 100% 30.16 in 10.0 mi NNW 3.5 mph - 0.01 in   Overcast
7:53 PM 34.0 °F 29.8 °F 32.0 °F 92% 30.19 in 10.0 mi WNW 4.6 mph - 0.01 in   Scattered Clouds
8:53 PM 34.0 °F 27.2 °F 30.9 °F 89% 30.22 in 10.0 mi NW 8.1 mph - N/A   Overcast
9:53 PM 32.0 °F 25.6 °F 28.9 °F 88% 30.24 in 10.0 mi NW 6.9 mph - N/A   Clear
10:53 PM 30.2 °F 23.4 °F 28.4 °F 93% 30.23 in 10.0 mi WNW 6.9 mph - N/A   Clear
11:53 PM 28.9 °F 21.1 °F 26.1 °F 89% 30.26 in 10.0 mi NW 8.1 mph - N/A   Clear